Year,Month,Day,Hour,Minute,Value (Times are PST for windgust in km/hr)
2013,09,04,00,01,3.20
2013,09,04,00,02,3.20
2013,09,04,00,03,4.80
2013,09,04,00,04,3.20
2013,09,04,00,05,4.80
2013,09,04,00,06,4.80
2013,09,04,00,07,1.60
2013,09,04,00,08,6.40
2013,09,04,00,09,4.80
2013,09,04,00,10,3.20
2013,09,04,00,11,4.80
2013,09,04,00,12,6.40
2013,09,04,00,13,6.40
2013,09,04,00,14,4.80
2013,09,04,00,15,6.40
2013,09,04,00,16,4.80
2013,09,04,00,17,3.20
2013,09,04,00,18,1.60
2013,09,04,00,19,4.80
2013,09,04,00,20,4.80
2013,09,04,00,21,1.60
2013,09,04,00,22,4.80
2013,09,04,00,23,4.80
2013,09,04,00,24,4.80
2013,09,04,00,25,6.40
2013,09,04,00,26,6.40
2013,09,04,00,27,3.20
2013,09,04,00,28,1.60
2013,09,04,00,30,1.60
2013,09,04,00,31,1.60
2013,09,04,00,32,1.60
2013,09,04,00,33,3.20
2013,09,04,00,34,4.80
2013,09,04,00,35,3.20
2013,09,04,00,36,4.80
2013,09,04,00,37,6.40
2013,09,04,00,38,4.80
2013,09,04,00,41,1.60
2013,09,04,00,42,3.20
2013,09,04,00,43,3.20
2013,09,04,00,44,4.80
2013,09,04,00,45,1.60
2013,09,04,00,51,1.60
2013,09,04,00,52,1.60
2013,09,04,00,53,4.80
2013,09,04,00,54,3.20
2013,09,04,00,55,3.20
2013,09,04,00,56,3.20
2013,09,04,00,58,4.80
2013,09,04,00,59,1.60
2013,09,04,01,00,3.20
2013,09,04,01,01,1.60
2013,09,04,01,02,3.20
2013,09,04,01,03,3.20
2013,09,04,01,05,4.80
2013,09,04,01,06,6.40
2013,09,04,01,07,3.20
2013,09,04,01,08,1.60
2013,09,04,01,17,1.60
2013,09,04,01,25,1.60
2013,09,04,01,26,1.60
2013,09,04,01,28,3.20
2013,09,04,01,29,1.60
2013,09,04,01,30,3.20
2013,09,04,01,33,3.20
2013,09,04,01,34,4.80
2013,09,04,01,35,3.20
2013,09,04,02,35,1.60
2013,09,04,03,06,1.60
2013,09,04,03,07,1.60
2013,09,04,03,27,1.60
2013,09,04,03,45,1.60
2013,09,04,03,46,3.20
2013,09,04,03,47,3.20
2013,09,04,04,15,1.60
2013,09,04,04,16,1.60
2013,09,04,04,17,3.20
2013,09,04,04,18,3.20
2013,09,04,04,19,3.20
2013,09,04,04,23,1.60
2013,09,04,04,26,1.60
2013,09,04,04,42,1.60
2013,09,04,04,44,1.60
2013,09,04,04,47,3.20
2013,09,04,04,48,3.20
2013,09,04,04,49,3.20
2013,09,04,04,53,3.20
2013,09,04,04,54,3.20
2013,09,04,04,55,4.80
2013,09,04,04,56,1.60
2013,09,04,04,57,1.60
2013,09,04,05,00,1.60
2013,09,04,05,09,3.20
2013,09,04,05,10,3.20
2013,09,04,05,15,1.60
2013,09,04,05,17,1.60
2013,09,04,05,19,1.60
2013,09,04,05,20,1.60
2013,09,04,05,21,3.20
2013,09,04,05,22,3.20
2013,09,04,05,23,1.60
2013,09,04,05,26,1.60
2013,09,04,05,28,1.60
2013,09,04,05,33,4.80
2013,09,04,05,34,4.80
2013,09,04,05,35,1.60
2013,09,04,05,36,1.60
2013,09,04,05,38,3.20
2013,09,04,05,39,4.80
2013,09,04,05,41,3.20
2013,09,04,05,42,4.80
2013,09,04,05,43,3.20
2013,09,04,05,44,1.60
2013,09,04,05,45,3.20
2013,09,04,05,46,4.80
2013,09,04,05,47,1.60
2013,09,04,05,49,3.20
2013,09,04,05,50,4.80
2013,09,04,05,51,8.10
2013,09,04,05,52,3.20
2013,09,04,05,55,1.60
2013,09,04,05,57,1.60
2013,09,04,05,58,1.60
2013,09,04,05,59,1.60
2013,09,04,06,00,3.20
2013,09,04,06,01,3.20
2013,09,04,06,02,3.20
2013,09,04,06,03,6.40
2013,09,04,06,04,6.40
2013,09,04,06,05,8.10
2013,09,04,06,06,6.40
2013,09,04,06,07,8.10
2013,09,04,06,08,4.80
2013,09,04,06,09,4.80
2013,09,04,06,10,9.60
2013,09,04,06,11,6.40
2013,09,04,06,12,6.40
2013,09,04,06,13,4.80
2013,09,04,06,14,4.80
2013,09,04,06,16,6.40
2013,09,04,06,17,6.40
2013,09,04,06,18,6.40
2013,09,04,06,19,6.40
2013,09,04,06,20,4.80
2013,09,04,06,21,6.40
2013,09,04,06,22,6.40
2013,09,04,06,23,6.40
2013,09,04,06,24,8.10
2013,09,04,06,25,3.20
2013,09,04,06,26,1.60
2013,09,04,06,27,6.40
2013,09,04,06,28,3.20
2013,09,04,06,29,9.60
2013,09,04,06,30,9.60
2013,09,04,06,31,3.20
2013,09,04,06,32,4.80
2013,09,04,06,33,1.60
2013,09,04,06,34,6.40
2013,09,04,06,35,8.10
2013,09,04,06,36,8.10
2013,09,04,06,37,1.60
2013,09,04,06,38,4.80
2013,09,04,06,39,4.80
2013,09,04,06,40,4.80
2013,09,04,06,41,4.80
2013,09,04,06,42,8.10
2013,09,04,06,43,6.40
2013,09,04,06,44,1.60
2013,09,04,06,45,6.40
2013,09,04,06,46,6.40
2013,09,04,06,47,4.80
2013,09,04,06,48,3.20
2013,09,04,06,49,6.40
2013,09,04,06,50,1.60
2013,09,04,06,52,4.80
2013,09,04,06,53,1.60
2013,09,04,06,54,1.60
2013,09,04,06,55,3.20
2013,09,04,06,56,3.20
2013,09,04,07,00,3.20
2013,09,04,07,01,3.20
2013,09,04,07,02,1.60
2013,09,04,07,05,3.20
2013,09,04,07,06,3.20
2013,09,04,07,07,1.60
2013,09,04,07,08,4.80
2013,09,04,07,09,6.40
2013,09,04,07,10,6.40
2013,09,04,07,11,6.40
2013,09,04,07,12,3.20
2013,09,04,07,14,4.80
2013,09,04,07,15,4.80
2013,09,04,07,16,4.80
2013,09,04,07,17,1.60
2013,09,04,07,18,6.40
2013,09,04,07,19,1.60
2013,09,04,07,24,4.80
2013,09,04,07,25,3.20
2013,09,04,07,28,1.60
2013,09,04,07,29,4.80
2013,09,04,07,30,4.80
2013,09,04,07,31,3.20
2013,09,04,07,32,4.80
2013,09,04,07,33,4.80
2013,09,04,07,34,6.40
2013,09,04,07,35,4.80
2013,09,04,07,36,3.20
2013,09,04,07,37,4.80
2013,09,04,07,38,4.80
2013,09,04,07,39,1.60
2013,09,04,07,40,4.80
2013,09,04,07,41,4.80
2013,09,04,07,42,3.20
2013,09,04,07,43,6.40
2013,09,04,07,44,6.40
2013,09,04,07,45,6.40
2013,09,04,07,46,6.40
2013,09,04,07,47,8.10
2013,09,04,07,48,8.10
2013,09,04,07,49,3.20
2013,09,04,07,50,8.10
2013,09,04,07,51,8.10
2013,09,04,07,52,3.20
2013,09,04,07,53,4.80
2013,09,04,07,54,6.40
2013,09,04,07,55,6.40
2013,09,04,07,56,8.10
2013,09,04,07,57,6.40
2013,09,04,07,58,8.10
2013,09,04,07,59,8.10
2013,09,04,08,00,1.60
2013,09,04,08,01,1.60
2013,09,04,08,03,9.60
2013,09,04,08,04,4.80
2013,09,04,08,05,1.60
2013,09,04,08,06,9.60
2013,09,04,08,07,6.40
2013,09,04,08,08,8.10
2013,09,04,08,09,6.40
2013,09,04,08,10,9.60
2013,09,04,08,11,4.80
2013,09,04,08,12,6.40
2013,09,04,08,13,11.30
2013,09,04,08,14,6.40
2013,09,04,08,15,4.80
2013,09,04,08,16,4.80
2013,09,04,08,17,4.80
2013,09,04,08,18,8.10
2013,09,04,08,19,1.60
2013,09,04,08,20,6.40
2013,09,04,08,21,1.60
2013,09,04,08,23,6.40
2013,09,04,08,24,4.80
2013,09,04,08,25,6.40
2013,09,04,08,26,6.40
2013,09,04,08,27,1.60
2013,09,04,08,28,4.80
2013,09,04,08,29,6.40
2013,09,04,08,30,6.40
2013,09,04,08,31,6.40
2013,09,04,08,32,6.40
2013,09,04,08,33,6.40
2013,09,04,08,34,9.60
2013,09,04,08,35,6.40
2013,09,04,08,36,8.10
2013,09,04,08,37,6.40
2013,09,04,08,38,4.80
2013,09,04,08,39,1.60
2013,09,04,08,40,4.80
2013,09,04,08,41,8.10
2013,09,04,08,42,9.60
2013,09,04,08,43,8.10
2013,09,04,08,44,6.40
2013,09,04,08,45,3.20
2013,09,04,08,46,4.80
2013,09,04,08,47,6.40
2013,09,04,08,48,4.80
2013,09,04,08,49,4.80
2013,09,04,08,50,4.80
2013,09,04,08,51,4.80
2013,09,04,08,52,8.10
2013,09,04,08,53,6.40
2013,09,04,08,54,6.40
2013,09,04,08,55,4.80
2013,09,04,08,56,4.80
2013,09,04,08,57,1.60
2013,09,04,08,58,4.80
2013,09,04,08,59,1.60
2013,09,04,09,01,3.20
2013,09,04,09,02,4.80
2013,09,04,09,03,3.20
2013,09,04,09,05,1.60
2013,09,04,09,07,1.60
2013,09,04,09,08,4.80
2013,09,04,09,09,1.60
2013,09,04,09,11,3.20
2013,09,04,09,14,4.80
2013,09,04,09,17,4.80
2013,09,04,09,18,3.20
2013,09,04,09,19,6.40
2013,09,04,09,20,1.60
2013,09,04,09,22,1.60
2013,09,04,09,24,4.80
2013,09,04,09,25,6.40
2013,09,04,09,26,4.80
2013,09,04,09,27,3.20
2013,09,04,09,28,4.80
2013,09,04,09,29,4.80
2013,09,04,09,30,6.40
2013,09,04,09,31,6.40
2013,09,04,09,33,1.60
2013,09,04,09,34,1.60
2013,09,04,09,35,4.80
2013,09,04,09,36,4.80
2013,09,04,09,37,9.60
2013,09,04,09,38,8.10
2013,09,04,09,39,6.40
2013,09,04,09,40,8.10
2013,09,04,09,41,6.40
2013,09,04,09,42,4.80
2013,09,04,09,43,3.20
2013,09,04,09,44,6.40
2013,09,04,09,45,6.40
2013,09,04,09,46,4.80
2013,09,04,09,47,3.20
2013,09,04,09,48,6.40
2013,09,04,09,49,6.40
2013,09,04,09,50,4.80
2013,09,04,09,51,8.10
2013,09,04,09,52,6.40
2013,09,04,09,53,1.60
2013,09,04,09,54,8.10
2013,09,04,09,55,9.60
2013,09,04,09,56,8.10
2013,09,04,09,57,6.40
2013,09,04,09,58,8.10
2013,09,04,09,59,8.10
2013,09,04,10,00,4.80
2013,09,04,10,01,8.10
2013,09,04,10,02,6.40
2013,09,04,10,03,6.40
2013,09,04,10,04,6.40
2013,09,04,10,05,8.10
2013,09,04,10,06,6.40
2013,09,04,10,07,9.60
2013,09,04,10,08,8.10
2013,09,04,10,09,6.40
2013,09,04,10,10,1.60
2013,09,04,10,11,1.60
2013,09,04,10,12,3.20
2013,09,04,10,13,1.60
2013,09,04,10,14,4.80
2013,09,04,10,15,11.30
2013,09,04,10,16,9.60
2013,09,04,10,17,11.30
2013,09,04,10,18,14.50
2013,09,04,10,19,16.10
2013,09,04,10,20,9.60
2013,09,04,10,21,8.10
2013,09,04,10,22,9.60
2013,09,04,10,23,9.60
2013,09,04,10,24,11.30
2013,09,04,10,25,9.60
2013,09,04,10,26,9.60
2013,09,04,10,27,9.60
2013,09,04,10,28,14.50
2013,09,04,10,29,4.80
2013,09,04,10,30,1.60
2013,09,04,10,31,6.40
2013,09,04,10,32,14.50
2013,09,04,10,33,9.60
2013,09,04,10,34,11.30
2013,09,04,10,35,8.10
2013,09,04,10,36,9.60
2013,09,04,10,37,12.90
2013,09,04,10,38,11.30
2013,09,04,10,39,12.90
2013,09,04,10,40,14.50
2013,09,04,10,41,11.30
2013,09,04,10,42,11.30
2013,09,04,10,43,9.60
2013,09,04,10,44,9.60
2013,09,04,10,45,12.90
2013,09,04,10,46,14.50
2013,09,04,10,47,14.50
2013,09,04,10,48,11.30
2013,09,04,10,49,11.30
2013,09,04,10,50,12.90
2013,09,04,10,51,11.30
2013,09,04,10,52,11.30
2013,09,04,10,53,9.60
2013,09,04,10,54,12.90
2013,09,04,10,55,11.30
2013,09,04,10,56,11.30
2013,09,04,10,57,8.10
2013,09,04,10,58,8.10
2013,09,04,10,59,11.30
2013,09,04,11,00,11.30
2013,09,04,11,01,12.90
2013,09,04,11,02,11.30
2013,09,04,11,03,14.50
2013,09,04,11,04,11.30
2013,09,04,11,05,14.50
2013,09,04,11,06,11.30
2013,09,04,11,07,14.50
2013,09,04,11,08,11.30
2013,09,04,11,09,11.30
2013,09,04,11,10,12.90
2013,09,04,11,11,9.60
2013,09,04,11,12,16.10
2013,09,04,11,13,11.30
2013,09,04,11,14,9.60
2013,09,04,11,15,9.60
2013,09,04,11,16,11.30
2013,09,04,11,17,11.30
2013,09,04,11,18,9.60
2013,09,04,11,19,4.80
2013,09,04,11,20,6.40
2013,09,04,11,21,8.10
2013,09,04,11,22,4.80
2013,09,04,11,23,3.20
2013,09,04,11,24,4.80
2013,09,04,11,25,4.80
2013,09,04,11,26,4.80
2013,09,04,11,27,6.40
2013,09,04,11,28,4.80
2013,09,04,11,29,4.80
2013,09,04,11,30,6.40
2013,09,04,11,31,11.30
2013,09,04,11,32,8.10
2013,09,04,11,33,6.40
2013,09,04,11,34,4.80
2013,09,04,11,35,3.20
2013,09,04,11,36,6.40
2013,09,04,11,37,8.10
2013,09,04,11,39,3.20
2013,09,04,11,40,1.60
2013,09,04,11,41,4.80
2013,09,04,11,42,6.40
2013,09,04,11,43,8.10
2013,09,04,11,44,6.40
2013,09,04,11,45,6.40
2013,09,04,11,47,6.40
2013,09,04,11,48,4.80
2013,09,04,11,52,1.60
2013,09,04,11,53,1.60
2013,09,04,11,55,8.10
2013,09,04,11,56,8.10
2013,09,04,11,57,8.10
2013,09,04,11,58,6.40
2013,09,04,11,59,6.40
2013,09,04,12,00,1.60
2013,09,04,12,01,6.40
2013,09,04,12,02,3.20
2013,09,04,12,03,8.10
2013,09,04,12,04,8.10
2013,09,04,12,05,9.60
2013,09,04,12,06,9.60
2013,09,04,12,07,6.40
2013,09,04,12,08,8.10
2013,09,04,12,09,8.10
2013,09,04,12,10,9.60
2013,09,04,12,11,11.30
2013,09,04,12,12,8.10
2013,09,04,12,13,8.10
2013,09,04,12,14,6.40
2013,09,04,12,15,8.10
2013,09,04,12,16,11.30
2013,09,04,12,17,9.60
2013,09,04,12,18,9.60
2013,09,04,12,19,9.60
2013,09,04,12,20,11.30
2013,09,04,12,21,8.10
2013,09,04,12,22,9.60
2013,09,04,12,23,9.60
2013,09,04,12,24,8.10
2013,09,04,12,25,4.80
2013,09,04,12,26,8.10
2013,09,04,12,27,6.40
2013,09,04,12,28,6.40
2013,09,04,12,29,6.40
2013,09,04,12,30,1.60
2013,09,04,12,31,6.40
2013,09,04,12,32,6.40
2013,09,04,12,33,8.10
2013,09,04,12,34,6.40
2013,09,04,12,35,6.40
2013,09,04,12,36,4.80
2013,09,04,12,37,4.80
2013,09,04,12,38,6.40
2013,09,04,12,39,4.80
2013,09,04,12,40,8.10
2013,09,04,12,41,6.40
2013,09,04,12,42,9.60
2013,09,04,12,43,11.30
2013,09,04,12,44,11.30
2013,09,04,12,45,11.30
2013,09,04,12,46,8.10
2013,09,04,12,47,8.10
2013,09,04,12,48,6.40
2013,09,04,12,49,9.60
2013,09,04,12,50,9.60
2013,09,04,12,51,9.60
2013,09,04,12,52,11.30
2013,09,04,12,53,11.30
2013,09,04,12,54,11.30
2013,09,04,12,55,9.60
2013,09,04,12,56,11.30
2013,09,04,12,57,9.60
2013,09,04,12,58,8.10
2013,09,04,12,59,12.90
2013,09,04,13,00,9.60
2013,09,04,13,01,9.60
2013,09,04,13,02,11.30
2013,09,04,13,03,11.30
2013,09,04,13,04,16.10
2013,09,04,13,05,11.30
2013,09,04,13,06,11.30
2013,09,04,13,07,9.60
2013,09,04,13,08,9.60
2013,09,04,13,09,11.30
2013,09,04,13,10,16.10
2013,09,04,13,11,14.50
2013,09,04,13,12,14.50
2013,09,04,13,13,14.50
2013,09,04,13,14,17.70
2013,09,04,13,15,16.10
2013,09,04,13,16,11.30
2013,09,04,13,17,14.50
2013,09,04,13,18,11.30
2013,09,04,13,19,16.10
2013,09,04,13,20,11.30
2013,09,04,13,21,11.30
2013,09,04,13,22,16.10
2013,09,04,13,23,11.30
2013,09,04,13,24,14.50
2013,09,04,13,25,16.10
2013,09,04,13,26,16.10
2013,09,04,13,27,20.90
2013,09,04,13,28,16.10
2013,09,04,13,29,16.10
2013,09,04,13,30,17.70
2013,09,04,13,31,16.10
2013,09,04,13,32,17.70
2013,09,04,13,33,17.70
2013,09,04,13,34,17.70
2013,09,04,13,35,16.10
2013,09,04,13,36,16.10
2013,09,04,13,37,19.30
2013,09,04,13,38,17.70
2013,09,04,13,39,17.70
2013,09,04,13,40,14.50
2013,09,04,13,41,14.50
2013,09,04,13,42,11.30
2013,09,04,13,43,14.50
2013,09,04,13,44,14.50
2013,09,04,13,45,12.90
2013,09,04,13,46,11.30
2013,09,04,13,47,14.50
2013,09,04,13,48,16.10
2013,09,04,13,49,14.50
2013,09,04,13,50,11.30
2013,09,04,13,51,9.60
2013,09,04,13,52,14.50
2013,09,04,13,53,16.10
2013,09,04,13,54,11.30
2013,09,04,13,55,14.50
2013,09,04,13,56,16.10
2013,09,04,13,57,11.30
2013,09,04,13,58,16.10
2013,09,04,13,59,14.50
2013,09,04,14,00,16.10
2013,09,04,14,01,19.30
2013,09,04,14,02,17.70
2013,09,04,14,03,19.30
2013,09,04,14,04,16.10
2013,09,04,14,05,16.10
2013,09,04,14,06,17.70
2013,09,04,14,07,16.10
2013,09,04,14,08,17.70
2013,09,04,14,09,17.70
2013,09,04,14,10,17.70
2013,09,04,14,11,19.30
2013,09,04,14,12,14.50
2013,09,04,14,13,14.50
2013,09,04,14,14,16.10
2013,09,04,14,15,16.10
2013,09,04,14,16,17.70
2013,09,04,14,17,17.70
2013,09,04,14,18,19.30
2013,09,04,14,19,16.10
2013,09,04,14,20,17.70
2013,09,04,14,21,16.10
2013,09,04,14,22,16.10
2013,09,04,14,23,14.50
2013,09,04,14,24,16.10
2013,09,04,14,25,16.10
2013,09,04,14,26,11.30
2013,09,04,14,27,17.70
2013,09,04,14,28,16.10
2013,09,04,14,29,17.70
2013,09,04,14,30,16.10
2013,09,04,14,31,16.10
2013,09,04,14,32,16.10
2013,09,04,14,33,16.10
2013,09,04,14,34,16.10
2013,09,04,14,35,16.10
2013,09,04,14,36,14.50
2013,09,04,14,37,12.90
2013,09,04,14,38,12.90
2013,09,04,14,39,14.50
2013,09,04,14,40,9.60
2013,09,04,14,41,16.10
2013,09,04,14,42,12.90
2013,09,04,14,43,16.10
2013,09,04,14,44,16.10
2013,09,04,14,45,14.50
2013,09,04,14,46,16.10
2013,09,04,14,47,17.70
2013,09,04,14,48,14.50
2013,09,04,14,49,16.10
2013,09,04,14,50,16.10
2013,09,04,14,51,9.60
2013,09,04,14,52,14.50
2013,09,04,14,53,14.50
2013,09,04,14,54,16.10
2013,09,04,14,55,14.50
2013,09,04,14,56,14.50
2013,09,04,14,57,16.10
2013,09,04,14,58,16.10
2013,09,04,14,59,16.10
2013,09,04,15,00,11.30
2013,09,04,15,01,16.10
2013,09,04,15,02,17.70
2013,09,04,15,03,17.70
2013,09,04,15,04,19.30
2013,09,04,15,05,16.10
2013,09,04,15,06,17.70
2013,09,04,15,07,19.30
2013,09,04,15,08,19.30
2013,09,04,15,09,16.10
2013,09,04,15,10,16.10
2013,09,04,15,11,16.10
2013,09,04,15,12,16.10
2013,09,04,15,13,14.50
2013,09,04,15,14,16.10
2013,09,04,15,15,11.30
2013,09,04,15,16,14.50
2013,09,04,15,17,12.90
2013,09,04,15,18,14.50
2013,09,04,15,19,11.30
2013,09,04,15,20,11.30
2013,09,04,15,21,16.10
2013,09,04,15,22,14.50
2013,09,04,15,23,14.50
2013,09,04,15,24,12.90
2013,09,04,15,25,16.10
2013,09,04,15,26,14.50
2013,09,04,15,27,16.10
2013,09,04,15,28,14.50
2013,09,04,15,29,12.90
2013,09,04,15,30,11.30
2013,09,04,15,31,16.10
2013,09,04,15,32,17.70
2013,09,04,15,33,14.50
2013,09,04,15,34,16.10
2013,09,04,15,35,14.50
2013,09,04,15,36,11.30
2013,09,04,15,37,11.30
2013,09,04,15,38,11.30
2013,09,04,15,39,16.10
2013,09,04,15,40,9.60
2013,09,04,15,41,14.50
2013,09,04,15,42,12.90
2013,09,04,15,43,12.90
2013,09,04,15,44,11.30
2013,09,04,15,45,14.50
2013,09,04,15,46,11.30
2013,09,04,15,47,14.50
2013,09,04,15,48,12.90
2013,09,04,15,49,14.50
2013,09,04,15,50,16.10
2013,09,04,15,51,12.90
2013,09,04,15,52,11.30
2013,09,04,15,53,9.60
2013,09,04,15,54,11.30
2013,09,04,15,55,11.30
2013,09,04,15,56,11.30
2013,09,04,15,57,11.30
2013,09,04,15,58,9.60
2013,09,04,15,59,14.50
2013,09,04,16,00,16.10
2013,09,04,16,01,16.10
2013,09,04,16,02,12.90
2013,09,04,16,03,11.30
2013,09,04,16,04,11.30
2013,09,04,16,05,11.30
2013,09,04,16,06,11.30
2013,09,04,16,07,14.50
2013,09,04,16,08,9.60
2013,09,04,16,09,9.60
2013,09,04,16,10,11.30
2013,09,04,16,11,9.60
2013,09,04,16,12,11.30
2013,09,04,16,13,14.50
2013,09,04,16,14,11.30
2013,09,04,16,15,16.10
2013,09,04,16,16,19.30
2013,09,04,16,17,16.10
2013,09,04,16,18,17.70
2013,09,04,16,19,11.30
2013,09,04,16,20,11.30
2013,09,04,16,21,11.30
2013,09,04,16,22,11.30
2013,09,04,16,23,11.30
2013,09,04,16,24,11.30
2013,09,04,16,25,9.60
2013,09,04,16,26,8.10
2013,09,04,16,27,11.30
2013,09,04,16,28,8.10
2013,09,04,16,29,11.30
2013,09,04,16,30,11.30
2013,09,04,16,31,11.30
2013,09,04,16,32,8.10
2013,09,04,16,33,11.30
2013,09,04,16,34,9.60
2013,09,04,16,35,8.10
2013,09,04,16,36,6.40
2013,09,04,16,37,8.10
2013,09,04,16,38,9.60
2013,09,04,16,39,6.40
2013,09,04,16,40,8.10
2013,09,04,16,41,4.80
2013,09,04,16,42,4.80
2013,09,04,16,43,4.80
2013,09,04,16,44,4.80
2013,09,04,16,45,6.40
2013,09,04,16,46,6.40
2013,09,04,16,47,6.40
2013,09,04,16,48,3.20
2013,09,04,16,49,4.80
2013,09,04,16,50,6.40
2013,09,04,16,51,6.40
2013,09,04,16,52,6.40
2013,09,04,16,53,6.40
2013,09,04,16,54,8.10
2013,09,04,16,55,6.40
2013,09,04,16,56,6.40
2013,09,04,16,57,8.10
2013,09,04,16,58,9.60
2013,09,04,16,59,9.60
2013,09,04,17,00,9.60
2013,09,04,17,01,9.60
2013,09,04,17,02,8.10
2013,09,04,17,03,8.10
2013,09,04,17,04,9.60
2013,09,04,17,05,8.10
2013,09,04,17,06,8.10
2013,09,04,17,07,9.60
2013,09,04,17,08,8.10
2013,09,04,17,09,8.10
2013,09,04,17,10,8.10
2013,09,04,17,11,6.40
2013,09,04,17,12,6.40
2013,09,04,17,13,4.80
2013,09,04,17,14,6.40
2013,09,04,17,15,8.10
2013,09,04,17,16,8.10
2013,09,04,17,17,6.40
2013,09,04,17,18,6.40
2013,09,04,17,19,6.40
2013,09,04,17,20,8.10
2013,09,04,17,21,6.40
2013,09,04,17,22,4.80
2013,09,04,17,23,3.20
2013,09,04,17,24,3.20
2013,09,04,17,25,1.60
2013,09,04,17,26,4.80
2013,09,04,17,27,1.60
2013,09,04,17,28,1.60
2013,09,04,17,29,3.20
2013,09,04,17,30,3.20
2013,09,04,17,31,1.60
2013,09,04,17,33,1.60
2013,09,04,17,36,1.60
2013,09,04,17,40,1.60
2013,09,04,17,42,3.20
2013,09,04,17,43,1.60
2013,09,04,17,44,3.20
2013,09,04,17,45,1.60
2013,09,04,17,46,1.60
2013,09,04,17,47,3.20
2013,09,04,17,48,3.20
2013,09,04,17,49,3.20
2013,09,04,17,50,1.60
2013,09,04,17,51,4.80
2013,09,04,17,52,4.80
2013,09,04,17,53,1.60
2013,09,04,17,54,3.20
2013,09,04,17,55,4.80
2013,09,04,17,56,3.20
2013,09,04,17,57,4.80
2013,09,04,17,58,4.80
2013,09,04,17,59,6.40
2013,09,04,18,00,4.80
2013,09,04,18,01,1.60
2013,09,04,18,02,1.60
2013,09,04,18,04,1.60
2013,09,04,18,06,6.40
2013,09,04,18,07,4.80
2013,09,04,18,08,6.40
2013,09,04,18,09,3.20
2013,09,04,18,10,4.80
2013,09,04,18,11,4.80
2013,09,04,18,12,1.60
2013,09,04,18,13,1.60
2013,09,04,18,14,3.20
2013,09,04,18,15,1.60
2013,09,04,18,16,1.60
2013,09,04,18,17,1.60
2013,09,04,18,18,3.20
2013,09,04,18,19,1.60
2013,09,04,18,20,1.60
2013,09,04,18,21,1.60
2013,09,04,18,22,1.60
2013,09,04,18,23,1.60
2013,09,04,18,25,1.60
2013,09,04,18,26,1.60
2013,09,04,18,29,1.60
2013,09,04,18,30,1.60
2013,09,04,18,33,1.60
2013,09,04,18,34,1.60
2013,09,04,18,35,3.20
2013,09,04,18,36,3.20
2013,09,04,18,38,1.60
2013,09,04,18,39,1.60
2013,09,04,18,40,1.60
2013,09,04,18,42,1.60
2013,09,04,18,43,1.60
2013,09,04,18,44,1.60
2013,09,04,18,47,1.60
2013,09,04,18,51,1.60
2013,09,04,18,58,1.60
2013,09,04,18,59,1.60
2013,09,04,19,00,1.60
2013,09,04,19,01,3.20
2013,09,04,19,02,4.80
2013,09,04,19,04,1.60
2013,09,04,19,05,1.60
2013,09,04,19,06,1.60
2013,09,04,19,08,1.60
2013,09,04,19,10,1.60
2013,09,04,19,13,3.20
2013,09,04,19,14,1.60
2013,09,04,19,15,1.60
2013,09,04,19,16,4.80
2013,09,04,19,18,3.20
2013,09,04,19,19,1.60
2013,09,04,19,20,1.60
2013,09,04,19,21,1.60
2013,09,04,19,26,3.20
2013,09,04,19,27,1.60
2013,09,04,19,29,3.20
2013,09,04,19,30,1.60
2013,09,04,19,31,1.60
2013,09,04,19,33,1.60
2013,09,04,19,35,1.60
2013,09,04,19,36,3.20
2013,09,04,19,37,3.20
2013,09,04,19,38,4.80
2013,09,04,19,39,1.60
2013,09,04,19,40,4.80
2013,09,04,19,41,4.80
2013,09,04,19,42,1.60
2013,09,04,19,43,4.80
2013,09,04,19,49,1.60
2013,09,04,20,00,3.20
2013,09,04,20,01,6.40
2013,09,04,20,02,4.80
2013,09,04,20,03,1.60
2013,09,04,20,05,1.60
2013,09,04,20,07,1.60
2013,09,04,20,08,4.80
2013,09,04,20,09,6.40
2013,09,04,20,10,4.80
2013,09,04,20,11,1.60
2013,09,04,20,12,1.60
2013,09,04,20,36,1.60
2013,09,04,20,40,3.20
2013,09,04,20,41,4.80
2013,09,04,20,43,1.60
2013,09,04,20,44,1.60
2013,09,04,20,45,3.20
2013,09,04,20,46,4.80
2013,09,04,20,47,1.60
2013,09,04,20,55,1.60
2013,09,04,20,56,1.60
2013,09,04,20,58,1.60
2013,09,04,20,59,3.20
2013,09,04,21,00,3.20
2013,09,04,21,01,1.60
2013,09,04,21,03,1.60
2013,09,04,21,04,1.60
2013,09,04,21,06,1.60
2013,09,04,21,18,1.60
2013,09,04,21,23,1.60
2013,09,04,21,31,1.60
2013,09,04,21,41,3.20
2013,09,04,21,42,3.20
2013,09,04,21,43,1.60
2013,09,04,21,44,1.60
2013,09,04,21,45,1.60
2013,09,04,21,47,1.60
2013,09,04,21,48,3.20
2013,09,04,21,49,3.20
2013,09,04,21,50,1.60
2013,09,04,21,52,1.60
2013,09,04,21,53,1.60
2013,09,04,21,54,3.20
2013,09,04,22,01,1.60
2013,09,04,22,02,4.80
2013,09,04,22,03,4.80
2013,09,04,22,04,4.80
2013,09,04,22,05,1.60
2013,09,04,22,07,6.40
2013,09,04,22,08,6.40
2013,09,04,22,09,4.80
2013,09,04,22,10,6.40
2013,09,04,22,11,6.40
2013,09,04,22,12,1.60
2013,09,04,22,14,1.60
2013,09,04,22,16,3.20
2013,09,04,22,17,4.80
2013,09,04,22,18,1.60
2013,09,04,22,20,6.40
2013,09,04,22,21,4.80
2013,09,04,22,22,4.80
2013,09,04,22,23,6.40
2013,09,04,22,24,4.80
2013,09,04,22,25,4.80
2013,09,04,22,26,6.40
2013,09,04,22,27,8.10
2013,09,04,22,28,6.40
2013,09,04,22,29,6.40
2013,09,04,22,30,8.10
2013,09,04,22,31,8.10
2013,09,04,22,32,6.40
2013,09,04,22,33,4.80
2013,09,04,22,34,1.60
2013,09,04,22,35,6.40
2013,09,04,22,36,6.40
2013,09,04,22,37,6.40
2013,09,04,22,38,6.40
2013,09,04,22,39,6.40
2013,09,04,22,40,9.60
2013,09,04,22,41,6.40
2013,09,04,22,42,4.80
2013,09,04,22,43,6.40
2013,09,04,22,44,8.10
2013,09,04,22,45,8.10
2013,09,04,22,46,6.40
2013,09,04,22,47,11.30
2013,09,04,22,48,14.50
2013,09,04,22,49,6.40
2013,09,04,22,50,9.60
2013,09,04,22,51,4.80
2013,09,04,22,52,8.10
2013,09,04,22,53,6.40
2013,09,04,22,54,4.80
2013,09,04,22,55,3.20
2013,09,04,23,26,1.60
